TimePDT,TemperatureF,Dew PointF,Humidity,Sea Level PressureIn,VisibilityMPH,Wind Direction,Wind SpeedMPH,Gust SpeedMPH,PrecipitationIn,Events,Conditions,WindDirDegrees,DateUTC
12:54 AM,48.0,46.9,96,30.19,6.0,West,3.5,-,N/A,,Overcast,270,2013-03-12 07:54:00
1:54 AM,48.0,46.9,96,30.19,6.0,SW,3.5,-,N/A,,Overcast,220,2013-03-12 08:54:00
2:54 AM,48.0,46.9,96,30.19,8.0,Calm,Calm,-,N/A,,Overcast,0,2013-03-12 09:54:00
3:54 AM,48.0,46.9,96,30.17,3.0,Calm,Calm,-,N/A,,Overcast,0,2013-03-12 10:54:00
4:54 AM,48.0,46.9,96,30.17,4.0,Calm,Calm,-,N/A,,Overcast,0,2013-03-12 11:54:00
5:54 AM,46.9,46.0,97,30.17,4.0,East,4.6,-,N/A,,Overcast,80,2013-03-12 12:54:00
6:11 AM,46.4,46.4,100,30.13,1.8,East,5.8,-,N/A,,Overcast,90,2013-03-12 13:11:00
6:28 AM,46.4,44.6,93,30.12,0.5,ESE,6.9,-,N/A,Fog,Fog,110,2013-03-12 13:28:00
6:54 AM,44.1,44.1,100,30.16,0.8,East,5.8,-,N/A,,Mist,100,2013-03-12 13:54:00
7:06 AM,42.8,42.8,100,30.12,2.0,ESE,4.6,-,N/A,,Overcast,120,2013-03-12 14:06:00
7:13 AM,42.8,42.8,100,30.12,8.0,ESE,3.5,-,N/A,,Overcast,120,2013-03-12 14:13:00
7:54 AM,44.1,43.0,96,30.17,10.0,Calm,Calm,-,N/A,,Overcast,0,2013-03-12 14:54:00
8:02 AM,44.6,44.6,100,30.13,1.5,Calm,Calm,-,N/A,,Overcast,0,2013-03-12 15:02:00
8:09 AM,44.6,44.6,100,30.13,0.2,Calm,Calm,-,N/A,Fog,Fog,0,2013-03-12 15:09:00
8:31 AM,44.6,44.6,100,30.13,0.5,Calm,Calm,-,N/A,Fog,Fog,0,2013-03-12 15:31:00
8:54 AM,46.0,45.0,96,30.18,0.8,Calm,Calm,-,N/A,,Overcast,0,2013-03-12 15:54:00
9:20 AM,44.6,44.6,100,30.15,1.8,WSW,4.6,-,N/A,,Overcast,250,2013-03-12 16:20:00
9:25 AM,44.6,44.6,100,30.15,3.0,Calm,Calm,-,N/A,,Overcast,0,2013-03-12 16:25:00
9:54 AM,46.0,45.0,96,30.19,6.0,Calm,Calm,-,N/A,,Overcast,0,2013-03-12 16:54:00
10:43 AM,48.2,44.6,87,30.15,7.0,Calm,Calm,-,N/A,,Scattered Clouds,0,2013-03-12 17:43:00
10:54 AM,51.1,46.0,83,30.19,9.0,Calm,Calm,-,N/A,,Clear,0,2013-03-12 17:54:00
11:54 AM,53.1,46.0,77,30.19,7.0,NNW,4.6,-,N/A,,Partly Cloudy,330,2013-03-12 18:54:00
12:54 PM,53.1,46.9,80,30.17,6.0,NW,5.8,-,N/A,,Haze,320,2013-03-12 19:54:00
1:38 PM,53.6,48.2,82,30.12,8.0,WNW,5.8,-,N/A,,Partly Cloudy,300,2013-03-12 20:38:00
1:54 PM,53.1,48.0,83,30.16,8.0,NW,6.9,-,N/A,,Partly Cloudy,310,2013-03-12 20:54:00
2:06 PM,51.8,48.2,88,30.11,8.0,West,6.9,-,N/A,,Mostly Cloudy,280,2013-03-12 21:06:00
2:54 PM,54.0,48.9,83,30.15,10.0,WNW,6.9,-,N/A,,Mostly Cloudy,300,2013-03-12 21:54:00
3:01 PM,53.6,48.2,82,30.11,10.0,WNW,6.9,-,N/A,,Scattered Clouds,290,2013-03-12 22:01:00
3:54 PM,55.9,48.9,77,30.14,10.0,NW,4.6,-,N/A,,Scattered Clouds,320,2013-03-12 22:54:00
4:54 PM,55.9,48.9,77,30.13,10.0,North,3.5,-,N/A,,Clear,350,2013-03-12 23:54:00
5:54 PM,52.0,48.0,86,30.14,9.0,NW,5.8,-,N/A,,Partly Cloudy,320,2013-03-13 00:54:00
6:10 PM,51.8,48.2,88,30.10,7.0,NW,5.8,-,N/A,,Mostly Cloudy,310,2013-03-13 01:10:00
6:46 PM,50.0,48.2,94,30.10,1.8,NW,3.5,-,N/A,,Overcast,310,2013-03-13 01:46:00
6:54 PM,50.0,48.0,93,30.15,2.0,Calm,Calm,-,N/A,,Overcast,0,2013-03-13 01:54:00
7:07 PM,50.0,48.2,94,30.11,3.0,North,3.5,-,N/A,,Overcast,350,2013-03-13 02:07:00
7:14 PM,50.0,48.2,94,30.11,2.0,Calm,Calm,-,N/A,,Overcast,0,2013-03-13 02:14:00
7:43 PM,50.0,48.2,94,30.12,4.0,Calm,Calm,-,N/A,,Overcast,0,2013-03-13 02:43:00
7:54 PM,50.0,48.0,93,30.16,5.0,NE,3.5,-,N/A,,Overcast,40,2013-03-13 02:54:00
8:38 PM,48.2,46.4,93,30.12,7.0,Calm,Calm,-,N/A,,Scattered Clouds,0,2013-03-13 03:38:00
8:54 PM,48.9,48.0,97,30.16,8.0,Calm,Calm,-,N/A,,Clear,0,2013-03-13 03:54:00
9:09 PM,48.2,46.4,93,30.12,2.5,Calm,Calm,-,N/A,,Partly Cloudy,0,2013-03-13 04:09:00
9:14 PM,48.2,46.4,93,30.12,1.0,NE,3.5,-,N/A,,Mist,50,2013-03-13 04:14:00
9:22 PM,48.2,46.4,93,30.12,0.5,Calm,Calm,-,N/A,Fog,Fog,0,2013-03-13 04:22:00
9:31 PM,48.2,46.4,93,30.13,0.2,Calm,Calm,-,N/A,Fog,Fog,0,2013-03-13 04:31:00
9:46 PM,48.2,46.4,93,30.13,0.8,Calm,Calm,-,N/A,,Mist,0,2013-03-13 04:46:00
9:51 PM,48.2,46.4,93,30.13,2.0,East,3.5,-,N/A,,Overcast,80,2013-03-13 04:51:00
9:54 PM,48.0,46.9,96,30.17,3.0,East,3.5,-,N/A,,Overcast,80,2013-03-13 04:54:00
10:10 PM,48.2,46.4,93,30.12,1.8,East,3.5,-,N/A,,Overcast,100,2013-03-13 05:10:00
10:47 PM,46.4,46.4,100,30.13,0.2,Calm,Calm,-,N/A,Fog,Fog,0,2013-03-13 05:47:00
11:01 PM,46.4,46.4,100,30.13,0.2,Calm,Calm,-,N/A,Fog,Fog,0,2013-03-13 06:01:00
11:37 PM,46.4,46.4,100,30.12,1.0,Calm,Calm,-,N/A,,Mist,0,2013-03-13 06:37:00
11:42 PM,46.4,46.4,100,30.12,3.0,Calm,Calm,-,N/A,,Mostly Cloudy,0,2013-03-13 06:42:00
11:54 PM,46.0,45.0,96,30.16,9.0,ESE,3.5,-,N/A,,Scattered Clouds,120,2013-03-13 06:54:00